Terminal Aerodrome Forecast
Issued by NWS

Home | Current Version | Previous Version | Text Only | Print | Product List | Glossary On
Versions: 1 2 3 4 5 6 7 8 9 10 11 12 13 14 15 16 17 18 19 20 21 22 23 24 25 26 27 28
000
FTUS41 KBUF 270500
TAFJHW
TAF
KJHW 270520Z 2706/2806 03006KT 2SM -SHSN OVC025
     FM271100 02007KT P6SM VCSH SCT015 BKN020
     FM271400 01010KT P6SM VCSH BKN012 OVC020
     FM280200 34009KT P6SM SCT020 BKN030
      AMD LTD TO CLD VIS AND WIND=

USA.gov is the U.S. government's official web portal to all federal, state and local government web resources and services.